Home   Weather   Pali   Past weeks

Flag for India Past Weather in Pali, Rajasthan, India — Yesterday and Last 2 Weeks

Now
84 °F

Haze.


Feels Like: 81 °F
Forecast: 77 / 100 °F
Wind: 5 mph from Northwest

Location: Jaipur / Sanganer

Current Time: Apr 25, 2017 at 4:50:19 am

Latest Report: Apr 25, 2017 at 4:30 am


Visibility: 2 mi

Pressure: 29.77 "Hg

Humidity: 18%

Dew Point: 36 °F

Location of PaliLocation

Past Weather in Pali — Graph

°F

Pali Temperature Yesterday

Maximum temperature yesterday: 99 °F (at 1:30 pm)
Minimum temperature yesterday: 81 °F (at 6:30 am)
Average temperature yesterday: 91 °F

High & Low Weather Summary for the Past Weeks

 TemperatureHumidityPressure
High109 °F (Apr 16, 4:00 pm)35% (Apr 20, 7:00 am)29.98 "Hg (Apr 20, 7:00 am)
Low68 °F (Apr 10, 6:00 am)3% (Apr 15, 5:30 pm)29.56 "Hg (Apr 20, 4:00 pm)
Average93 °F15%29.75 "Hg
* Reported Apr 10 3:30 am — Apr 25 3:30 am, Pali, Weather by CustomWeather, © 2017

Note: Actual official high and low records may vary slightly from our data, if they occured in-between our weather recording intervals... More about our weather records

Advertising

Pali Weather History for the Previous 24 Hours

Scroll right to see more
 ConditionsComfort  
Time TempWeatherWind HumidityBarometerVisibility
3:30 am
Tue, Apr 25
84 °FHaze.5 mph16%29.77 "Hg2 mi
3:00 am84 °FHaze.7 mph16%29.77 "Hg2 mi
2:30 am86 °FHaze.5 mph15%29.77 "Hg2 mi
1:00 am88 °FHaze.5 mph15%29.77 "Hg2 mi
12:00 am88 °FHaze.6 mph15%29.80 "Hg2 mi
11:30 pm
Mon, Apr 24
90 °FHaze.6 mph14%29.80 "Hg2 mi
11:00 pm90 °FHaze.7 mph15%29.80 "Hg2 mi
10:30 pm90 °FHaze.5 mph16%29.80 "Hg2 mi
10:00 pm91 °FHaze.6 mph16%29.80 "Hg2 mi
9:30 pm91 °FHaze.6 mph18%29.80 "Hg2 mi
9:00 pm93 °FHaze.7 mph19%29.77 "Hg2 mi
8:30 pm93 °FPassing clouds.7 mph20%29.77 "Hg2 mi
8:00 pm93 °FPassing clouds.7 mph23%29.74 "Hg2 mi
7:30 pm93 °FPartly cloudy.8 mph23%29.74 "Hg2 mi
7:00 pm93 °FBroken clouds.7 mph21%29.71 "Hg2 mi
6:30 pm95 °FBroken clouds.7 mph22%29.71 "Hg2 mi
6:00 pm95 °FBroken clouds.9 mph23%29.71 "Hg2 mi
5:30 pm95 °FScattered clouds.7 mph22%29.71 "Hg2 mi
5:05 pm95 °FScattered clouds.10 mph22%29.71 "Hg2 mi
4:30 pm95 °FThunderstorms. Broken clouds.8 mph23%29.71 "Hg2 mi
4:00 pm93 °FThunderstorms. Broken clouds.10 mph34%29.71 "Hg1 mi
3:30 pm97 °FPartly sunny.12 mph19%29.71 "Hg2 mi
3:00 pm99 °FScattered clouds.10 mph18%29.71 "Hg2 mi
2:30 pm97 °FScattered clouds.10 mph19%29.74 "Hg2 mi
1:30 pm99 °FScattered clouds.9 mph19%29.74 "Hg2 mi
1:00 pm95 °FScattered clouds.10 mph23%29.77 "Hg2 mi
12:30 pm95 °FHaze.7 mph25%29.77 "Hg2 mi
12:00 pm95 °FHaze.12 mph25%29.80 "Hg2 mi
11:30 am93 °FHaze.10 mph26%29.80 "Hg2 mi
11:00 am93 °FHaze.12 mph26%29.80 "Hg2 mi
10:30 am90 °FHaze.12 mph29%29.83 "Hg2 mi
10:00 am91 °FHaze.8 mph26%29.83 "Hg2 mi
9:30 am88 °FHaze.6 mph29%29.80 "Hg2 mi
9:00 am88 °FHaze.5 mph27%29.80 "Hg2 mi
7:30 am82 °FHaze.3 mph30%29.77 "Hg1 mi
7:00 am81 °FHaze.5 mph34%29.77 "Hg1 mi
6:30 am81 °FHaze.5 mph34%29.74 "Hg1 mi
5:30 am82 °FPassing clouds.7 mph30%29.74 "Hg1 mi
5:00 am82 °FPassing clouds.9 mph30%29.74 "Hg1 mi
4:00 am82 °FPassing clouds.14 mph30%29.74 "Hg1 mi
Weather by CustomWeather, © 2017

See weather overviewHow to use our weather pages